Location: Shepherdstown, WV
(39.4326°N, 77.8042°W)
Time: 13:03:55
(UTC-04:00)

Vanguard 1 Rocket - Pass Details

Date: 06 August 2021
Orbit: 650 x 4226 km, 34.3° (Epoch: 20 September)

Event Time Altitude Azimuth Distance (km) Brightness Sun altitude
Rises 16:04:06 0° 281° (W) 6,007 12.1 47.1°
Reaches altitude 10° 16:09:39 10° 270° (W) 4,311 11.8 46.1°
Maximum altitude 16:17:21 23° 223° (SW) 2,445 10.8 44.7°
Drops below altitude 10° 16:22:24 10° 172° (S) 2,711 10.0 43.7°
Sets 16:25:00 0° 156° (SSE) 3,381 10.3 43.3°
